Simultaneous Nadir Overpasses (SNOs) Predictions

Prediction of SNOs between AQUA and METOP-A Satellite Orbit:

Table of predicted SNOs for the next 14.0 days since TLE Epoch: 10/24/2014
Index Date (AQUA) Time (AQUA) Lat,Lon (AQUA) SZA (AQUA ) Date (METOP-A) Time (METOP-A) Lat,Lon (METOP-A) SZA (METOP-A ) Distance(km) Time Diff (sec)
1 10/26/2014 21:54:11 73.19,-153.03 85.75 10/26/2014 21:53:04 73.12,-155.47 85.70 79.25 67
2 10/26/2014 22:43:48 -73.80, 13.34 93.63 10/26/2014 22:43:32 -73.80, 13.39 93.63 1.79 16
3 10/26/2014 23:33:17 73.87,-179.18 86.45 10/26/2014 23:34:11 73.85,-179.15 86.44 1.83 54
4 10/29/2014 17:28:30 73.28, -86.78 86.78 10/29/2014 17:27:22 73.21, -88.86 86.73 67.10 68
5 10/29/2014 18:18:05 -73.78, 79.81 92.71 10/29/2014 18:17:52 -73.79, 79.80 92.69 1.68 13
6 10/29/2014 19:07:34 73.85,-112.72 87.38 10/29/2014 19:08:31 73.84,-112.76 87.37 2.12 57
7 11/01/2014 13:02:48 73.40, -20.58 87.81 11/01/2014 13:01:39 73.34, -22.15 87.77 50.54 69
8 11/01/2014 13:52:21 -73.78, 146.24 91.79 11/01/2014 13:52:12 -73.78, 146.18 91.80 1.77 9
9 11/01/2014 14:41:50 73.86, -46.30 88.30 11/01/2014 14:42:50 73.87, -46.28 88.31 0.87 60
10 11/04/2014 08:37:05 73.58, 45.47 88.88 11/04/2014 08:35:53 73.56, 44.76 88.86 22.41 72
11 11/04/2014 09:26:35 -73.81,-147.38 90.88 11/04/2014 09:26:30 -73.80,-147.34 90.89 1.48 5
12 11/04/2014 10:16:03 73.84, 20.19 89.17 11/04/2014 10:17:09 73.83, 20.07 89.16 3.82 66
13 11/07/2014 04:11:21 73.74, 111.58 89.89 11/07/2014 04:10:09 73.71, 111.55 89.87 2.99 72
14 11/07/2014 05:00:48 -73.80, -80.92 90.04 11/07/2014 05:00:49 -73.81, -80.89 90.03 1.28 1




NCC Satellite Simultaneous Nadir Overpasses (SNOs) Prediction Service
